Weather History for KGCC - October, 2011

Change the Weather History Date:

Thursday, October 6, 2011

  Actual Average Record
Temperature  
Mean Temperature 52 °F 49 °F  
Max Temperature 64 °F 62 °F 87 °F (1975)
Min Temperature 40 °F 35 °F 15 °F (2000)
Degree Days  
Heating Degree Days 13 16  
Month to date heating degree days 14 92  
Since 1 July heating degree days 176 387  
Cooling Degree Days 0 0  
Month to date cooling degree days 20 0  
Year to date cooling degree days 561 500  
Growing Degree Days 4 (Base 50)    
Moisture  
Dew Point 43 °F    
Average Humidity 66    
Maximum Humidity 83    
Minimum Humidity 48    
Precipitation  
Precipitation 0.14 in 0.05 in 1.00 in (1962)
Month to date precipitation 0.17 0.29  
Year to date precipitation 15.11 11.96  
Sea Level Pressure  
Sea Level Pressure 29.41 in    
Wind  
Wind Speed 14 mph (South)    
Max Wind Speed 36 mph    
Max Gust Speed 51 mph    
Visibility 10 miles    
Events Rain    
T = Trace of Precipitation, MM = Missing Value Source: NWS Daily Summary

Daily Weather History Graph

Daily Weather History Graph

Search for Another Location

Airport or City:

Trip Planner

Search our weather history database for the weather conditions in past years. The results will help you decide how hot, cold, wet, or windy it might be!

Date:

Astronomy

Oct. 06, 2011 Rise Set
Actual Time 7:05 AM MDT 6:34 PM MDT
Civil Twilight 6:36 AM MDT 7:03 PM MDT
Nautical Twilight 6:03 AM MDT 7:36 PM MDT
Astronomical Twilight 5:29 AM MDT 8:10 PM MDT
Moon 3:58 PM MDT (10/6) 1:45 AM MDT (10/6)
Length of Visible Light 12h 26m
Length of Day
11h 28m
Waxing Gibbous, 76% of the Moon is Illuminated
Oct 6
Waxing Gibbous
Oct 11
Full
Oct 19
Last Quarter
Oct 26
New
Nov 2
First Quarter

Hourly Weather History & Observations

Time (MDT) Temp. Windchill Dew Point Humidity Pressure Visibility Wind Dir Wind Speed Gust Speed Precip Events Conditions
12:53 AM 57.0 °F - 45.0 °F 64% 29.40 in 10.0 mi South 10.4 mph - N/A   Clear
1:53 AM 59.0 °F - 42.1 °F 53% 29.40 in 10.0 mi South 9.2 mph - N/A   Overcast
2:53 AM 57.9 °F - 45.0 °F 62% 29.38 in 10.0 mi SSE 10.4 mph - N/A   Overcast
3:53 AM 57.0 °F - 43.0 °F 59% 29.37 in 10.0 mi SSE 11.5 mph - N/A   Partly Cloudy
4:53 AM 52.0 °F - 39.9 °F 63% 29.37 in 10.0 mi South 11.5 mph - N/A   Clear
5:53 AM 54.0 °F - 39.0 °F 57% 29.39 in 10.0 mi South 8.1 mph - N/A   Clear
6:53 AM 50.0 °F - 41.0 °F 71% 29.42 in 10.0 mi South 11.5 mph - N/A   Clear
7:53 AM 51.1 °F - 39.9 °F 66% 29.42 in 10.0 mi South 8.1 mph - N/A   Clear
8:53 AM 57.2 °F - 41.0 °F 55% 29.50 in 10.0 mi SSE 15.0 mph - N/A   Clear
9:53 AM 59.0 °F - 44.1 °F 58% 29.40 in 10.0 mi SSE 16.1 mph - N/A   Overcast
10:53 AM 60.1 °F - 42.1 °F 51% 29.40 in 10.0 mi South 12.7 mph - N/A   Mostly Cloudy
11:53 AM 59.0 °F - 44.1 °F 58% 29.41 in 10.0 mi SSE 12.7 mph - N/A   Partly Cloudy
12:53 PM 55.0 °F - 48.0 °F 77% 29.43 in 10.0 mi South 15.0 mph 25.3 mph 0.00 in Rain Light Rain
1:53 PM 55.9 °F - 48.0 °F 75% 29.38 in 10.0 mi SE 13.8 mph - 0.01 in   Overcast
2:53 PM 61.0 °F - 48.0 °F 62% 29.38 in 10.0 mi ESE 11.5 mph - N/A   Clear
3:53 PM 64.0 °F - 44.1 °F 48% 29.36 in 10.0 mi ESE 8.1 mph - N/A   Partly Cloudy
4:53 PM 63.0 °F - 46.0 °F 54% 29.39 in 10.0 mi SE 10.4 mph - N/A   Clear
5:53 PM 57.0 °F - 45.0 °F 64% 29.39 in 10.0 mi Calm Calm - N/A   Clear
6:53 PM 52.0 °F - 42.1 °F 69% 29.44 in 10.0 mi SW 23.0 mph 29.9 mph N/A   Mostly Cloudy
7:53 PM 46.9 °F - 39.0 °F 74% 29.48 in 10.0 mi SSW 35.7 mph 48.3 mph 0.00 in   Overcast
8:53 PM 43.0 °F 33.5 °F 39.9 °F 89% 29.37 in 9.0 mi WNW 24.2 mph 38.0 mph 0.12 in Rain Light Rain
9:28 PM 44.6 °F 37.2 °F 41.0 °F 87% 29.46 in 10.0 mi WSW 17.3 mph 26.5 mph 0.01 in   Partly Cloudy
9:53 PM 45.0 °F 38.2 °F 39.9 °F 82% 29.39 in 10.0 mi SW 15.0 mph 24.2 mph 0.01 in   Clear
10:53 PM 44.1 °F 37.7 °F 39.9 °F 85% 29.42 in 10.0 mi South 12.7 mph - N/A   Overcast
11:53 PM 42.1 °F 33.3 °F 37.0 °F 82% 29.41 in 10.0 mi South 19.6 mph - N/A   Clear